FW4469 Weather Reports


Display with metric or nautical units.
time (UTC)temp
F
wind
direction
speed
MPH
gust
MPH
rain 1hr
in
rain 24hr
in
rain mn
in
humidity
%
barometer
mb
20260503212013 50 318 4.0 7.0 0.00 0.06 0.01 93 1011.7
20260503211008 50 319 4.0 8.0 0.00 0.08 0.01 93 1011.7
20260503210003 51 317 4.0 9.0 0.00 0.10 0.01 92 1011.5
20260503205223 51 313 4.0 7.0 0.00 0.13 0.01 92 1011.5
20260503204008 51 320 4.0 7.0 0.00 0.14 0.01 92 1011.5
20260503203223 51 318 4.0 7.0 0.00 0.16 0.01 92 1011.6
20260503202223 51 319 3.0 6.0 0.00 0.19 0.01 92 1011.4
20260503201008 51 324 3.0 6.0 0.00 0.23 0.01 92 1011.3
20260503200003 51 324 3.0 7.0 0.00 0.26 0.01 91 1011.2
20260503195003 51 319 3.0 7.0 0.00 0.29 0.01 91 1011.1
20260503194003 51 314 3.0 6.0 0.00 0.31 0.01 91 1010.9
20260503193008 51 322 3.0 6.0 0.00 0.33 0.01 91 1011.0
20260503192008 52 322 3.0 6.0 0.00 0.34 0.01 90 1010.8
20260503191008 52 329 3.0 8.0 0.00 0.35 0.01 89 1010.6
20260503190008 52 326 4.0 6.0 0.00 0.35 0.01 88 1010.6
20260503185008 53 331 4.0 7.0 0.00 0.37 0.01 87 1010.5
20260503184008 54 333 4.0 7.0 0.00 0.38 0.01 84 1010.4
20260503183008 54 330 4.0 9.0 0.00 0.39 0.01 84 1010.3
20260503182008 54 324 3.0 6.0 0.00 0.40 0.01 85 1010.3
20260503181003 54 335 3.0 5.0 0.00 0.42 0.01 85 1010.3
20260503180008 54 329 3.0 6.0 0.00 0.43 0.01 84 1010.3
20260503175222 54 338 4.0 6.0 0.00 0.45 0.01 82 1010.1
20260503174003 55 336 4.0 7.0 0.00 0.46 0.01 83 1010.1
20260503173003 55 327 4.0 7.0 0.00 0.47 0.01 83 1009.9
20260503172008 55 332 4.0 7.0 0.00 0.47 0.01 83 1010.1
20260503171228 55 334 4.0 7.0 0.00 0.48 0.01 81 1010.2
20260503151008 58 330 4.0 8.0 0.00 0.48 0.01 71 1010.0
20260503131004 56 335 4.0 7.0 0.00 0.48 0.01 79 1010.1
20260503100217 53 335 3.0 6.0 0.00 0.48 0.01 85 1009.9
20260503081008 50 344 5.0 10.0 0.00 0.48 0.01 94 1009.6
20260503080218 50 344 4.0 10.0 0.00 0.48 0.01 94 1009.8
20260503072008 48 356 5.0 9.0 0.00 0.48 0.01 98 1009.6
20260503071222 48 346 4.0 9.0 0.00 0.48 0.01 99 1009.7
20260503060221 48 339 4.0 8.0 0.00 0.48 0.01 99 1009.8
20260503055008 48 331 4.0 7.0 0.00 0.48 0.01 99 1009.6
20260503054008 48 340 3.0 7.0 0.00 0.48 0.01 99 1009.5
20260503053003 48 335 4.0 8.0 0.00 0.48 0.01 99 1009.4
20260503052217 48 347 4.0 7.0 0.00 0.48 0.01 99 1009.5
20260503051008 48 345 3.0 7.0 0.00 0.48 0.01 99 1009.4
20260503050003 48 339 4.0 7.0 0.00 0.48 0.01 99 1009.3
20260503045013 48 325 4.0 8.0 0.00 0.48 0.01 99 1009.0
20260503044008 48 328 3.0 7.0 0.00 0.48 0.01 99 1009.2
20260503043223 48 351 4.0 7.0 0.00 0.48 0.01 99 1008.9
20260503042216 48 342 4.0 11.0 0.00 0.48 0.01 99 1009.0
20260503041008 48 343 4.0 7.0 0.00 0.48 0.01 99 1009.0
20260503040008 48 340 4.0 6.0 0.00 0.48 0.01 99 1009.1
20260503035222 48 339 4.0 7.0 0.00 0.48 0.01 99 1009.2
20260503034008 48 336 4.0 8.0 0.00 0.48 0.01 99 1009.4
20260503033008 48 338 4.0 10.0 0.00 0.48 0.01 99 1009.2
20260503032003 48 344 4.0 9.0 0.00 0.49 0.01 99 1009.1
20260503031003 48 340 4.0 10.0 0.00 0.49 0.01 99 1009.1
20260503030003 48 343 4.0 8.0 0.00 0.49 0.01 99 1009.2
20260503025218 48 343 4.0 8.0 0.00 0.49 0.01 99 1009.4
20260503024218 48 341 3.0 7.0 0.00 0.49 0.01 99 1009.4
20260503023003 48 339 3.0 7.0 0.00 0.49 0.01 99 1009.4
20260503022003 48 340 3.0 8.0 0.00 0.49 0.01 99 1009.4
20260503021003 48 341 3.0 7.0 0.00 0.49 0.01 99 1009.5
20260503020003 48 326 3.0 8.0 0.00 0.49 0.01 99 1009.7
20260503015003 48 344 3.0 6.0 0.00 0.49 0.01 99 1009.6
20260503014008 48 341 3.0 9.0 0.00 0.49 0.01 99 1009.6
20260503013003 48 336 3.0 7.0 0.00 0.49 0.01 99 1009.5
20260503012222 48 331 3.0 9.0 0.00 0.49 0.01 99 1009.6
20260503011003 48 343 3.0 9.0 0.00 0.49 0.01 99 1009.7
20260503010217 48 335 4.0 10.0 0.01 0.49 0.01 99 1009.6
20260503005003 48 337 5.0 10.0 0.01 0.49 0.01 99 1009.7
20260503004004 48 342 5.0 9.0 0.01 0.49 0.01 98 1009.8
20260503003008 48 343 5.0 10.0 0.01 0.49 0.01 98 1010.1
20260503002217 48 342 4.0 11.0 0.01 0.48 0.01 98 1010.1
20260503001008 48 345 5.0 10.0 0.01 0.48 0.01 98 1010.1
20260503000218 48 348 5.0 10.0 0.00 0.48 0.00 98 1010.2
20260502235223 48 342 4.0 9.0 0.00 0.48 0.00 98 1010.2
20260502234217 48 342 4.0 11.0 0.00 0.48 0.00 98 1010.3
20260502233008 48 346 5.0 11.0 0.00 0.48 0.00 98 1010.4
20260502232008 48 348 5.0 12.0 0.00 0.48 0.00 98 1010.8
20260502231217 48 345 5.0 14.0 0.00 0.48 0.00 98 1010.6
20260502230223 48 346 4.0 10.0 0.01 0.48 0.00 98 1010.5
20260502225223 48 342 4.0 10.0 0.02 0.48 0.48 98 1010.6
20260502224008 48 340 5.0 12.0 0.03 0.48 0.48 98 1010.6
20260502223216 48 342 4.0 12.0 0.04 0.48 0.48 98 1010.8
20260502222008 48 335 4.0 13.0 0.05 0.47 0.47 98 1010.7
20260502221003 48 347 4.0 13.0 0.06 0.47 0.47 98 1010.9
20260502220008 48 344 4.0 11.0 0.08 0.47 0.47 98 1010.9
20260502215222 47 349 4.0 11.0 0.10 0.46 0.46 97 1011.1
20260502214008 47 339 4.0 12.0 0.10 0.45 0.45 97 1011.2
20260502213008 47 341 3.0 15.0 0.11 0.44 0.44 97 1011.2